Location: Dittelbrunn
(50.0738°N, 10.2196°E)
Time: 05:01:38
(UTC+00:00)

ARIANE 5 R/B - Pass Details

Date: 18 September 2020
Orbit: 620 x 657 km, 98.2° (Epoch: 09 October)

Event Time Altitude Azimuth Distance (km) Brightness Sun altitude
Exits shadow 19:37:43 45° 70° (ENE) 859 3.0 -21.1°
Maximum altitude 19:37:45 45° 69° (ENE) 859 3.0 -21.1°
Drops below altitude 10° 19:41:53 10° 357° (N) 2,003 5.6 -21.6°
Sets 19:44:08 0° 351° (N) 2,912 6.6 -21.9°
